Date String (YYYY-MM-DD hh:mm:ss) UTC,Instrument flags,Ambient pressure (hPa),Sample flow (lpm),Bypass flow (lpm),Sample temperature (°C),Ambient temperature (°C),ASC tube jacket temperature (°C),LED temperature (°C),Box temperature (°C),Sample RH (%),Span deviation,Mass concentration (μg/m³),Mass concentration (μg/m³),Mass concentration (μg/m³)
DateTimeUTC,F1_M11,P_M11,Q1_M11,Q2_M11,T1_M11,T2_M11,T3_M11,T4_M11,T5_M11,U1_M11,ZSPAN_M11,X0_M11,X2_M11,X1_M11
2022-11-08 08:00:00,,0822.4,5.01,0.00,24.5,22.9,00.0,33.4,26.3,14.6,0004.0,0012.26,0005.01,0004.26
2022-11-08 08:01:00,,0822.4,5.01,0.00,24.5,22.8,00.0,33.4,26.3,14.6,0002.9,0012.01,0005.06,0004.30
2022-11-08 08:02:00,,0822.4,5.00,0.00,24.5,22.8,00.0,33.4,26.3,14.7,0002.5,0012.07,0005.09,0004.32
2022-11-08 08:03:00,,0822.4,4.99,0.00,24.4,22.9,00.0,33.3,26.3,14.7,0002.2,0012.44,0005.12,0004.36
2022-11-08 08:04:00,,0822.4,4.99,0.00,24.4,22.8,00.0,33.3,26.3,14.9,0002.4,0012.26,0005.15,0004.40
2022-11-08 08:05:00,,0822.4,5.00,0.00,24.4,22.8,00.0,33.3,26.3,14.9,0002.2,0012.15,0005.15,0004.45
2022-11-08 08:06:00,,0822.4,5.00,0.00,24.4,22.8,00.0,33.3,26.3,14.8,0002.3,0012.53,0005.20,0004.50
2022-11-08 08:07:00,,0822.4,5.00,0.00,24.4,22.8,00.0,33.3,26.3,14.8,0002.7,0012.91,0005.33,0004.56
2022-11-08 08:08:00,,0822.4,5.00,0.00,24.4,22.8,00.0,33.3,26.3,15.1,0002.9,0013.15,0005.42,0004.61
2022-11-08 08:09:00,,0822.4,5.00,0.00,24.4,22.8,00.0,33.3,26.3,15.3,0003.0,0013.09,0005.41,0004.62
2022-11-08 08:10:00,,0822.4,4.99,0.00,24.4,22.8,00.0,33.3,26.3,15.3,0003.2,0012.69,0005.46,0004.63
2022-11-08 08:11:00,,0822.4,5.02,0.00,24.4,22.8,00.0,33.3,26.3,15.2,0003.0,0012.77,0005.56,0004.68
2022-11-08 08:12:00,,0822.4,5.00,0.00,24.4,22.8,00.0,33.3,26.3,15.1,0003.4,0012.53,0005.62,0004.70
2022-11-08 08:13:00,,0822.4,4.99,0.00,24.4,22.8,00.0,33.3,26.3,15.0,0003.8,0012.22,0005.65,0004.68
2022-11-08 08:14:00,,0822.4,5.02,0.00,24.4,22.8,00.0,33.3,26.3,14.8,0003.7,0012.30,0005.64,0004.66
2022-11-08 08:15:00,,0822.4,4.99,0.00,24.4,22.8,00.0,33.3,26.3,14.8,0003.6,0012.98,0005.66,0004.67
2022-11-08 08:16:00,,0822.4,4.99,0.00,24.4,22.8,00.0,33.3,26.2,15.0,0003.9,0012.94,0005.69,0004.68
2022-11-08 08:17:00,,0822.4,5.00,0.00,24.4,22.8,00.0,33.3,26.2,15.1,0004.0,0012.61,0005.68,0004.67
2022-11-08 08:18:00,,0822.3,5.01,0.00,24.4,22.8,00.0,33.3,26.2,15.2,0003.7,0012.89,0005.65,0004.66
2022-11-08 08:19:00,,0822.3,4.99,0.00,24.4,22.8,00.0,33.2,26.2,15.2,0003.6,0013.42,0005.61,0004.67
2022-11-08 08:20:00,,0822.4,5.00,0.00,24.4,22.7,00.0,33.2,26.2,15.2,0003.0,0013.39,0005.59,0004.68
2022-11-08 08:21:00,,0822.4,5.02,0.00,24.4,22.7,00.0,33.2,26.2,15.2,0003.0,0013.28,0005.59,0004.70
2022-11-08 08:22:00,,0822.3,4.99,0.00,24.3,22.7,00.0,33.2,26.2,15.2,0003.1,0013.48,0005.63,0004.76
2022-11-08 08:23:00,,0822.3,5.00,0.00,24.4,22.7,00.0,33.2,26.2,15.2,0003.2,0013.61,0005.68,0004.83
2022-11-08 08:24:00,,0822.3,4.99,0.00,24.3,22.7,00.0,33.2,26.2,15.2,0002.6,0012.85,0005.71,0004.86
2022-11-08 08:25:00,,0822.3,5.01,0.00,24.3,22.7,00.0,33.2,26.2,15.3,0003.4,0012.63,0005.79,0004.93
2022-11-08 08:26:00,,0822.4,5.00,0.00,24.3,22.8,00.0,33.2,26.2,15.3,0002.9,0011.96,0005.82,0004.95
2022-11-08 08:27:00,,0822.4,4.99,0.00,24.3,22.7,00.0,33.2,26.2,15.4,0002.8,0012.61,0005.89,0004.96
2022-11-08 08:28:00,,0822.4,4.99,0.00,24.3,22.7,00.0,33.2,26.2,15.4,0002.8,0012.90,0005.95,0004.99
2022-11-08 08:29:00,,0822.4,5.01,0.00,24.3,22.7,00.0,33.2,26.2,15.4,0002.7,0012.69,0005.98,0005.03
2022-11-08 08:30:00,,0822.3,5.01,0.00,24.3,22.7,00.0,33.2,26.2,15.4,0002.4,0012.42,0006.02,0005.07
2022-11-08 08:31:00,,0822.3,5.00,0.00,24.3,22.7,00.0,33.1,26.2,15.4,0002.8,0013.78,0006.14,0005.14
2022-11-08 08:32:00,,0822.4,4.98,0.00,24.3,22.7,00.0,33.2,26.1,15.4,0002.7,0014.01,0006.23,0005.18
2022-11-08 08:33:00,,0822.4,5.01,0.00,24.3,22.7,00.0,33.2,26.2,15.4,0002.5,0013.88,0006.20,0005.15
2022-11-08 08:34:00,,0822.4,5.00,0.00,24.3,22.7,00.0,33.2,26.2,15.4,0002.7,0013.62,0006.11,0005.09
2022-11-08 08:35:00,,0822.4,4.99,0.00,24.3,22.7,00.0,33.2,26.2,15.4,0002.8,0013.94,0006.07,0005.07
2022-11-08 08:36:00,,0822.3,5.01,0.00,24.3,22.7,00.0,33.1,26.2,15.4,0002.7,0014.32,0006.02,0005.05
2022-11-08 08:37:00,,0822.3,5.01,0.00,24.3,22.7,00.0,33.1,26.2,15.4,0002.8,0014.76,0006.01,0005.04
2022-11-08 08:38:00,,0822.3,5.00,0.00,24.3,22.7,00.0,33.1,26.1,15.4,0002.8,0014.40,0006.00,0005.06
2022-11-08 08:39:00,,0822.3,5.00,0.00,24.3,22.7,00.0,33.1,26.1,15.5,0002.7,0014.23,0006.01,0005.07
2022-11-08 08:40:00,,0822.3,5.00,0.00,24.3,22.7,00.0,33.1,26.1,15.4,0002.8,0014.61,0006.01,0005.07
2022-11-08 08:41:00,,0822.3,5.00,0.00,24.3,22.7,00.0,33.1,26.1,15.4,0002.4,0014.76,0005.98,0005.05
2022-11-08 08:42:00,,0822.2,5.01,0.00,24.3,22.7,00.0,33.1,26.1,15.4,0002.2,0013.99,0005.91,0005.00
2022-11-08 08:43:00,,0822.2,5.01,0.00,24.3,22.7,00.0,33.1,26.1,15.4,0001.9,0015.25,0005.89,0004.99
2022-11-08 08:44:00,,0822.2,4.99,0.00,24.2,22.7,00.0,33.1,26.1,15.4,0001.5,0015.72,0005.96,0005.03
2022-11-08 08:45:00,,0822.3,4.99,0.00,24.2,22.6,00.0,33.1,26.1,15.4,0001.2,0015.62,0005.97,0005.04
2022-11-08 08:46:00,,0822.3,5.01,0.00,24.2,22.6,00.0,33.1,26.1,15.4,0001.0,0015.82,0005.99,0005.04
2022-11-08 08:47:00,,0822.3,5.00,0.00,24.2,22.6,00.0,33.1,26.0,15.4,0001.3,0016.74,0006.02,0005.06
2022-11-08 08:48:00,,0822.3,4.98,0.00,24.2,22.6,00.0,33.1,26.0,15.4,0001.3,0016.53,0006.07,0005.07
2022-11-08 08:49:00,,0822.3,5.02,0.00,24.2,22.6,00.0,33.1,26.0,15.4,0001.5,0016.92,0006.02,0005.07
2022-11-08 08:50:00,,0822.3,4.99,0.00,24.2,22.6,00.0,33.1,26.0,15.3,0001.5,0017.96,0005.98,0005.03
2022-11-08 08:51:00,,0822.3,5.01,0.00,24.2,22.6,00.0,33.1,26.0,15.3,0001.0,0017.88,0005.98,0004.99
2022-11-08 08:52:00,,0822.3,5.01,0.00,24.2,22.6,00.0,33.1,26.0,15.2,0000.6,0017.50,0005.93,0004.95
2022-11-08 08:53:00,,0822.2,4.99,0.00,24.2,22.6,00.0,33.1,26.0,15.3,0000.5,0016.67,0005.85,0004.92
2022-11-08 08:54:00,,0822.2,4.99,0.00,24.2,22.6,00.0,33.1,26.0,15.3,0000.8,0015.13,0005.79,0004.89
2022-11-08 08:55:00,,0822.2,5.01,0.00,24.2,22.6,00.0,33.1,26.0,15.3,0002.0,0014.60,0005.73,0004.85
2022-11-08 08:56:00,,0822.2,5.00,0.00,24.2,22.6,00.0,33.0,26.0,15.3,0002.7,0015.50,0005.77,0004.84
2022-11-08 08:57:00,,0822.2,4.99,0.00,24.2,22.6,00.0,33.0,26.0,15.1,0002.8,0015.06,0005.72,0004.81
2022-11-08 08:58:00,,0822.2,4.99,0.00,24.2,22.6,00.0,33.0,26.0,15.0,0002.3,0014.35,0005.63,0004.75
2022-11-08 08:59:00,,0822.2,5.00,0.00,24.2,22.6,00.0,33.0,26.0,14.8,0002.3,0014.36,0005.51,0004.67
